TimeEDT,TemperatureF,Dew PointF,Humidity,Sea Level PressureIn,VisibilityMPH,Wind Direction,Wind SpeedMPH,Gust SpeedMPH,PrecipitationIn,Events,Conditions,WindDirDegrees,DateUTC
12:15 AM,42.8,30.2,61,29.88,10.0,West,3.5,-,N/A,,Clear,270,2012-11-02 04:15:00
12:35 AM,42.8,28.4,57,29.89,10.0,West,3.5,-,N/A,,Clear,270,2012-11-02 04:35:00
12:55 AM,42.8,28.4,57,29.88,10.0,West,3.5,-,N/A,,Clear,260,2012-11-02 04:55:00
1:15 AM,42.8,28.4,57,29.89,10.0,West,4.6,-,N/A,,Clear,270,2012-11-02 05:15:00
1:35 AM,42.8,28.4,57,29.89,10.0,West,4.6,-,N/A,,Clear,280,2012-11-02 05:35:00
1:55 AM,42.8,26.6,53,29.89,10.0,West,3.5,-,N/A,,Clear,270,2012-11-02 05:55:00
2:15 AM,42.8,26.6,53,29.89,10.0,West,4.6,-,N/A,,Clear,280,2012-11-02 06:15:00
2:35 AM,42.8,26.6,53,29.89,10.0,West,3.5,-,N/A,,Clear,280,2012-11-02 06:35:00
2:55 AM,41.0,26.6,57,29.89,10.0,Calm,Calm,-,N/A,,Clear,0,2012-11-02 06:55:00
3:15 AM,37.4,26.6,65,29.89,10.0,Calm,Calm,-,N/A,,Clear,0,2012-11-02 07:15:00
3:35 AM,35.6,26.6,70,29.89,10.0,West,3.5,-,N/A,,Clear,270,2012-11-02 07:35:00
3:55 AM,35.6,26.6,70,29.89,10.0,West,3.5,-,N/A,,Clear,270,2012-11-02 07:55:00
4:15 AM,33.8,26.6,75,29.89,10.0,West,3.5,-,N/A,,Clear,260,2012-11-02 08:15:00
4:35 AM,39.2,26.6,61,29.89,10.0,West,3.5,-,N/A,,Clear,270,2012-11-02 08:35:00
4:55 AM,35.6,26.6,70,29.89,10.0,Calm,Calm,-,N/A,,Clear,0,2012-11-02 08:55:00
5:15 AM,35.6,26.6,70,29.89,10.0,West,3.5,-,N/A,,Clear,280,2012-11-02 09:15:00
5:35 AM,33.8,26.6,75,29.89,10.0,West,3.5,-,N/A,,Clear,260,2012-11-02 09:35:00
5:55 AM,33.8,26.6,75,29.89,10.0,West,3.5,-,N/A,,Clear,270,2012-11-02 09:55:00
6:15 AM,35.6,26.6,70,29.89,10.0,WSW,5.8,-,N/A,,Clear,250,2012-11-02 10:15:00
6:35 AM,35.6,26.6,70,29.90,10.0,West,4.6,-,N/A,,Clear,270,2012-11-02 10:35:00
6:55 AM,35.6,24.8,65,29.90,10.0,Calm,Calm,-,N/A,,Clear,0,2012-11-02 10:55:00
7:15 AM,30.2,24.8,80,29.90,10.0,Calm,Calm,-,N/A,,Clear,0,2012-11-02 11:15:00
7:35 AM,33.8,26.6,75,29.90,10.0,Calm,Calm,-,N/A,,Clear,0,2012-11-02 11:35:00
7:55 AM,32.0,26.6,80,29.91,10.0,WSW,5.8,-,N/A,,Clear,240,2012-11-02 11:55:00
8:15 AM,37.4,28.4,70,29.91,10.0,SW,8.1,-,N/A,,Clear,230,2012-11-02 12:15:00
8:35 AM,39.2,30.2,70,29.91,10.0,WSW,5.8,-,N/A,,Clear,240,2012-11-02 12:35:00
8:55 AM,44.6,28.4,53,29.91,10.0,SW,6.9,-,N/A,,Clear,230,2012-11-02 12:55:00
9:15 AM,46.4,26.6,46,29.91,10.0,WSW,6.9,-,N/A,,Clear,250,2012-11-02 13:15:00
9:35 AM,48.2,26.6,43,29.91,10.0,WSW,6.9,-,N/A,,Clear,240,2012-11-02 13:35:00
9:55 AM,50.0,28.4,43,29.91,10.0,WSW,9.2,-,N/A,,Clear,240,2012-11-02 13:55:00
10:15 AM,51.8,26.6,38,29.90,10.0,WSW,8.1,-,N/A,,Clear,250,2012-11-02 14:15:00
10:35 AM,55.4,28.4,36,29.90,10.0,WSW,6.9,-,N/A,,Clear,240,2012-11-02 14:35:00
10:55 AM,55.4,28.4,36,29.89,10.0,West,9.2,-,N/A,,Clear,260,2012-11-02 14:55:00
11:15 AM,59.0,30.2,34,29.89,10.0,West,5.8,-,N/A,,Clear,260,2012-11-02 15:15:00
11:35 AM,60.8,30.2,31,29.87,10.0,West,6.9,-,N/A,,Clear,260,2012-11-02 15:35:00
11:55 AM,62.6,32.0,32,29.86,10.0,WSW,5.8,-,N/A,,Clear,250,2012-11-02 15:55:00
12:15 PM,64.4,33.8,32,29.85,10.0,WSW,11.5,17.3,N/A,,Clear,240,2012-11-02 16:15:00
12:35 PM,64.4,33.8,32,29.84,10.0,WSW,8.1,17.3,N/A,,Clear,250,2012-11-02 16:35:00
12:55 PM,64.4,33.8,32,29.83,10.0,WSW,11.5,-,N/A,,Clear,240,2012-11-02 16:55:00
1:15 PM,64.4,33.8,32,29.83,10.0,SW,15.0,-,N/A,,Clear,230,2012-11-02 17:15:00
1:35 PM,64.4,33.8,32,29.82,10.0,WSW,8.1,-,N/A,,Clear,240,2012-11-02 17:35:00
1:55 PM,66.2,35.6,32,29.82,10.0,West,8.1,-,N/A,,Clear,260,2012-11-02 17:55:00
2:15 PM,64.4,35.6,34,29.82,10.0,WNW,5.8,-,N/A,,Clear,290,2012-11-02 18:15:00
2:35 PM,64.4,35.6,34,29.82,10.0,West,5.8,-,N/A,,Clear,280,2012-11-02 18:35:00
2:55 PM,66.2,35.6,32,29.82,10.0,West,10.4,17.3,N/A,,Clear,280,2012-11-02 18:55:00
3:15 PM,66.2,33.8,30,29.82,10.0,West,9.2,17.3,N/A,,Clear,280,2012-11-02 19:15:00
3:35 PM,66.2,35.6,32,29.81,10.0,NW,9.2,-,N/A,,Clear,310,2012-11-02 19:35:00
3:55 PM,66.2,35.6,32,29.82,10.0,WNW,6.9,-,N/A,,Clear,300,2012-11-02 19:55:00
4:15 PM,66.2,35.6,32,29.83,10.0,WNW,6.9,-,N/A,,Clear,300,2012-11-02 20:15:00
4:35 PM,66.2,35.6,32,29.83,10.0,NW,5.8,-,N/A,,Clear,310,2012-11-02 20:35:00
4:55 PM,66.2,35.6,32,29.83,10.0,NW,8.1,-,N/A,,Clear,320,2012-11-02 20:55:00
5:15 PM,64.4,35.6,34,29.84,10.0,NNW,3.5,-,N/A,,Clear,340,2012-11-02 21:15:00
5:35 PM,62.6,35.6,37,29.84,10.0,North,4.6,-,N/A,,Clear,350,2012-11-02 21:35:00
5:55 PM,60.8,35.6,39,29.86,10.0,Calm,Calm,-,N/A,,Clear,0,2012-11-02 21:55:00
6:15 PM,59.0,35.6,42,29.87,10.0,Calm,Calm,-,N/A,,Clear,0,2012-11-02 22:15:00
6:35 PM,57.2,35.6,44,29.88,10.0,Calm,Calm,-,N/A,,Clear,0,2012-11-02 22:35:00
6:55 PM,53.6,35.6,51,29.89,10.0,Calm,Calm,-,N/A,,Clear,0,2012-11-02 22:55:00
7:15 PM,50.0,35.6,58,29.90,10.0,Calm,Calm,-,N/A,,Clear,0,2012-11-02 23:15:00
7:35 PM,48.2,33.8,58,29.91,10.0,Calm,Calm,-,N/A,,Clear,0,2012-11-02 23:35:00
7:55 PM,48.2,35.6,62,29.92,10.0,Calm,Calm,-,N/A,,Clear,0,2012-11-02 23:55:00
8:15 PM,46.4,33.8,62,29.92,10.0,Calm,Calm,-,N/A,,Clear,0,2012-11-03 00:15:00
8:35 PM,46.4,33.8,62,29.93,10.0,Calm,Calm,-,N/A,,Clear,0,2012-11-03 00:35:00
8:55 PM,44.6,33.8,66,29.94,10.0,Calm,Calm,-,N/A,,Clear,0,2012-11-03 00:55:00
9:15 PM,44.6,35.6,71,29.95,10.0,Calm,Calm,-,N/A,,Clear,0,2012-11-03 01:15:00
9:35 PM,44.6,33.8,66,29.95,10.0,Calm,Calm,-,N/A,,Clear,0,2012-11-03 01:35:00
9:55 PM,42.8,33.8,70,29.96,10.0,Calm,Calm,-,N/A,,Clear,0,2012-11-03 01:55:00
10:15 PM,39.2,32.0,75,29.96,10.0,Calm,Calm,-,N/A,,Clear,0,2012-11-03 02:15:00
10:35 PM,39.2,32.0,75,29.97,10.0,Calm,Calm,-,N/A,,Clear,0,2012-11-03 02:35:00
10:55 PM,39.2,32.0,75,29.97,10.0,Calm,Calm,-,N/A,,Clear,0,2012-11-03 02:55:00
11:15 PM,42.8,30.2,61,29.97,10.0,Calm,Calm,-,N/A,,Clear,0,2012-11-03 03:15:00
11:35 PM,37.4,30.2,75,29.98,10.0,Calm,Calm,-,N/A,,Clear,0,2012-11-03 03:35:00
11:55 PM,39.2,30.2,70,29.98,10.0,Calm,Calm,-,N/A,,Clear,0,2012-11-03 03:55:00